Regional Weather Roundup
Issued by NWS

Home | Current Version | Previous Version | Graphics & Text | Print | Product List | Glossary On
Versions: 1 2 3 4 5 6 7 8 9 10 11 12 13 14 15 16 17 18 19 20 21 22 23 24 25 26 27 28 29 30 31 32 33 34 35 36 37 38 39 40 41 42 43 44 45 46 47 48 49 50
899
ASUS45 KBOU 290307
RWRCO

WEATHER ROUNDUP FOR COLORADO
NATIONAL WEATHER SERVICE DENVER/BOULDER CO
900 PM MDT SAT MAY 28 2016

NOTE: "FAIR" INDICATES FEW OR NO CLOUDS BELOW 12000 FEET WITH NO
SIGNIFICANT WEATHER AND/OR OBSTRUCTIONS TO VISIBILITY.

COZ001>005-013-030-031-290400-
...NORTHWEST COLORADO...

CITY           SKY/WX    TMP DP  RH WIND       PRES   REMARKS
CRAIG          FAIR      53  39  59 SW5       30.15R
HAYDEN         FAIR      54  36  50 E3        30.17R
MEEKER         FAIR      54  40  59 CALM      30.15R
MOUNT WERNER   NOT AVBL
STEAMBOAT SPGS FAIR      52  37  58 NE8       30.20R
WALDEN         NOT AVBL
$$

COZ006>008-011-290400-
...WEST CENTRAL VALLEYS...

CITY           SKY/WX    TMP DP  RH WIND       PRES   REMARKS
GRAND JUNCTION FAIR      66  34  30 W5        30.06R
MONTROSE       MOCLDY    66  29  24 CALM      30.11R
EAGLE          FAIR      55  36  47 NE5       30.21R
RIFLE          FAIR      56  38  50 CALM      30.11R
DELTA          CLOUDY    71  31  22 S15G24    30.08R
NUCLA          MOCLDY    63  28  27 SW3       30.14R
$$

COZ017>023-064>068-290400-
...SOUTHWEST COLORADO...

CITY           SKY/WX    TMP DP  RH WIND       PRES   REMARKS
DURANGO        FAIR      56  33  42 N8        30.14R
CORTEZ         FAIR      58  32  37 NE8       30.10R
PAGOSA SPRINGS FAIR      52  33  49 CALM      30.22R
TELLURIDE      FAIR      49  31  49 CALM      30.31R
WOLF CREEK PAS FAIR      36  21  55 SW9       30.47R
$$

COZ009-010-012-014-032>034-037-058>063-290400-
...CENTRAL COLORADO...

CITY           SKY/WX    TMP DP  RH WIND       PRES   REMARKS
ASPEN          FAIR      46  34  62 S3        30.24R
BUENA VISTA    CLOUDY    54  31  41 NW10      30.25R
COPPER MTN     NOT AVBL
BERTHOUD PASS  FAIR      30  19  64 NW8       30.45S WCI  23
COTTONWOOD PAS CLOUDY    48  30  49 CALM      30.34R
GUNNISON       FAIR      55  28  35 W3        30.24R
KREMMLING      FAIR      46  39  76 CALM      30.25R
LEADVILLE      FAIR      39  27  62 N5        30.33S
MONARCH PASS   FAIR      34  28  80 SW15      30.54R WCI  24
SALIDA         CLOUDY    57  32  38 W7        30.30R
SUNLIGHT       FAIR      41  30  65 CALM      30.41R
WILKERSON PASS FAIR      37  25  60 NE5       30.44R
$$

COZ069>075-290400-
...SAN LUIS VALLEY/SANGRE DE CRISTO MOUNTAINS...

CITY           SKY/WX    TMP DP  RH WIND       PRES   REMARKS
ALAMOSA        FAIR      52  40  63 NE5       30.21R
LA VETA PASS   FAIR      43  30  61 CALM      30.36R
SAGUACHE       CLOUDY    54  32  43 N10       30.26S
$$

COZ035-036-038>040-290400-
...NORTHERN COLORADO FRONT RANGE...

CITY           SKY/WX    TMP DP  RH WIND       PRES   REMARKS
DENVER INTL AP FAIR      56  45  66 S12       30.10R
DMNS CITY PARK   N/A     59  42  53 N7        30.12R
AURORA         PTCLDY    55  47  74 SE13      30.13R
FRONT RANGE AP MOCLDY    55  46  71 E16       30.13R
ERIE MUNI ARPT FAIR      55  45  69 CALM      30.11R
BOULDER MUN AP FAIR      59  43  55 CALM      30.12R
CENTENNIAL     FAIR      58  42  55 SE8       30.13R
BROOMFIELD     MOCLDY    55  43  62 W8        30.14R
FORT COLLINS   FAIR      57  43  58 SE7       30.11R
LONGMONT       FAIR      58  45  61 CALM      30.12R
$$

COZ041-046-047-076>085-087-088-290400-
...PIKES PEAK/PALMER DIVIDE AND SOUTHERN FOOTHILLS...

CITY           SKY/WX    TMP DP  RH WIND       PRES   REMARKS
COLO. SPRINGS  MOCLDY    59  38  45 S13       30.18R
A. F. ACADEMY  FAIR      55  39  54 NW5       30.18R
SCHRIEVER AFB  NOT AVBL
ELLICOTT       CLOUDY   N/A N/A N/A S3        30.16R
FALCON         FAIR      55  38  52 CALM      30.22R
FORT CARSON    MOCLDY    58  41  54 SW6       30.15R
LIMON          MOCLDY    54  51  90 N5        30.13R
MONUMENT HILL  FAIR      48  39  71 S14       30.21S
TRINIDAD       FAIR      57  42  57 CALM      30.12R
$$

COZ042>045-048>051-090-091-290400-
...NORTHEAST COLORADO...

CITY           SKY/WX    TMP DP  RH WIND       PRES   REMARKS
GREELEY ARPT   FAIR      57  46  67 S8G16     30.09S
AKRON          FAIR      61  39  44 SW8       30.09R
BURLINGTON     FAIR      60  49  66 S6        30.08R
WRAY           FAIR      64  46  52 CALM      30.04R
STERLING       FAIR      57  50  77 CALM      30.03F
HOLYOKE        FAIR      64  54  68 CALM      30.05R
FORT MORGAN    FAIR      57  44  62 S6        30.10R
$$

COZ086-089-092>099-290400-
...SOUTHEAST COLORADO...

CITY           SKY/WX    TMP DP  RH WIND       PRES   REMARKS
PUEBLO         FAIR      62  50  64 E8        30.07R
LA JUNTA       MOCLDY    68  48  48 N9        30.07R
LAMAR          FAIR      65  44  46 SE10      30.01R
SPRINGFIELD      N/A     61  47  59 SE9       30.06R
$$




USA.gov is the U.S. government's official web portal to all federal, state and local government web resources and services.